Regional Weather Roundup
Issued by NWS Jackson, KY

Home | Current Version | Previous Version | Text Only | Print | Product List | Glossary Off
Versions: 1 2 3 4 5 6 7 8 9 10 11 12 13 14 15 16 17 18 19 20 21 22 23 24 25 26 27 28

000
ASUS43 KJKL 170210
RWRJKL

EAST KENTUCKY HOURLY WEATHER ROUNDUP
NATIONAL WEATHER SERVICE JACKSON KY
900 PM EST SAT DEC 16 2017

NOTE: "FAIR" INDICATES FEW OR NO CLOUDS BELOW 12,000 FEET WITH
NO SIGNIFICANT WEATHER AND/OR OBSTRUCTIONS TO VISIBILITY.

* THESE REPORTS ARE NOT UNDER NWS QUALITY CONTROL AND MAY NOT
  REPORT WEATHER SUCH AS PRECIPITATION AND FOG.

KYZ079-080-083-085-087-088-110-112-115-119-120-170300
...EASTERN KENTUCKY...

CITY           SKY/WX    TMP DP  RH WIND       PRES   REMARKS
JACKSON        CLOUDY    41  26  55 S6        30.18S
LONDON         CLOUDY    39  26  59 S6        30.21R WCI  35
SOMERSET*      CLOUDY    34  28  80 S6        30.23S WCI  29
MONTICELLO*    CLOUDY    27  24  89 VRB6      30.23S WCI  20
WILLIAMSBURG*  CLOUDY    39  27  60 S3        30.22S
MIDDLESBORO*   PTCLDY    31  26  84 CALM      30.26R
HARLAN APT*    CLOUDY    36  27  69 CALM      30.23R
PIKE CO APT*     N/A     42  26  53 CALM      30.18F
BIG SANDY APT* CLOUDY    44  27  51 SW5       30.18F
MOREHEAD APT*  CLEAR     41  27  56 SW12      30.18S
$$

KYZ035-036-041-042-044-050-067-078-099-170300
...CENTRAL KENTUCKY...

CITY           SKY/WX    TMP DP  RH WIND       PRES   REMARKS
MT STERLING*   CLOUDY    41  30  65 SW8       30.19R
FLEMING/MASON* CLOUDY    37  28  70 SW8       30.17S WCI  31
DANVILLE*      CLOUDY    37  28  70 SW8       30.20R WCI  31
LEXINGTON      CLOUDY    40  29  64 S8        30.17R WCI  34
FRANKFORT      CLOUDY    42  28  57 S8        30.15R
LOUISVILLE     CLOUDY    46  29  51 S8        30.16R
LEBANON*         N/A     41  28  60 S10       30.18S
GLASGOW*       CLOUDY    41  29  63 S5        30.20S
BOWLING GREEN  CLOUDY    43  30  60 S7        30.20S
$$

KYZ091>093-OHZ055-061-077-WVZ005-015-034-035-042-170300
...SOUTHERN OHIO/WEST VIRGINIA...

CITY           SKY/WX    TMP DP  RH WIND       PRES   REMARKS
COVINGTON      PTCLDY    42  30  62 SW9       30.11R
COLUMBUS       CLEAR     35  27  72 CALM      30.11R
DAYTON         CLEAR     38  27  64 SW3       30.11R
WILMINGTON     CLEAR     38  29  70 SW10      30.10R WCI  31
HUNTINGTON     CLEAR     43  25  49 S7        30.16S
CHARLESTON     CLEAR     38  25  59 CALM      30.17R
PINEVILLE*       N/A     28  24  87 MISG      30.25R
BECKLEY        CLOUDY    35  22  58 VRB5      30.17R WCI  31
BLUEFIELD      CLOUDY    34  21  59 W12       30.18R WCI  25
LOGAN CO APT*    N/A     39  25  56 CALM      30.18R
$$

VAZ002-007-008-TNZ017-027-036-066-071-170300
...SOUTHWEST VIRGINIA/EAST TENNESSEE...

CITY           SKY/WX    TMP DP  RH WIND       PRES   REMARKS
WISE*          CLOUDY    36  28  75 SW3       30.20S
JONESVILLE*      N/A     28  27  93 CALM      30.27R
ABINGDON*      CLOUDY    34  27  75 W3        30.23S
BRISTOL        CLOUDY    29  26  89 CALM      30.24S
MORRISTOWN*    CLEAR     36  27  69 CALM      30.24R
SEVIERVILLE*   CLEAR     30  27  86 CALM      30.26R
KNOXVILLE      CLOUDY    35  30  82 CALM      30.25R
LAFOLLETTE*    CLEAR     30  27  86 CALM      30.28R
OAK RIDGE      PTCLDY    34  29  82 CALM      30.27R
CROSSVILLE     CLOUDY    37  26  64 CALM      30.22R
NASHVILLE      CLOUDY    43  30  60 S5        30.22R
$$

...KEY TO REMARKS...
VSB - VISIBILITY IN MILES
WCI - WIND CHILL INDEX
HX  - HEAT INDEX

$$




USA.gov is the U.S. government's official web portal to all federal, state and local government web resources and services.